• în România
  • Lista ţărilor
  • Pe 7 zile
  • Temperatura apei
  • Hartă satelitară
  • Meteo pe hartă
  • Widget-uri
  • user-avatar
    Intrare

    Meteo pe oră la Melbourne

    Astăzi, 24 Noiembrie, Vineri

    Timp Temperatura Precipitaţii Vânt Presiune Umiditate
    00:00 +22°C° 0,2 mm 1 m/s 757 mmHg 67%
    01:00 +21°C° 0,2 mm 1 m/s 757 mmHg 71%
    02:00 +19°C° 0,1 mm 2 m/s 757 mmHg 73%
    03:00 +19°C° 0,1 mm 2 m/s 757 mmHg 74%
    04:00 +20°C° 0 mm 1 m/s 757 mmHg 75%
    05:00 +20°C° 0,1 mm 2 m/s 757 mmHg 71%
    06:00 +21°C° 0,1 mm 2 m/s 758 mmHg 67%
    07:00 +23°C° 0,1 mm 2 m/s 758 mmHg 63%
    08:00 +25°C° 0 mm 2 m/s 758 mmHg 57%
    09:00 +27°C° 0 mm 2 m/s 758 mmHg 51%
    10:00 +29°C° 0 mm 2 m/s 758 mmHg 45%
    11:00 +29°C° 0 mm 2 m/s 758 mmHg 44%
    12:00 +29°C° 0 mm 2 m/s 758 mmHg 44%
    13:00 +30°C° 0 mm 1 m/s 758 mmHg 43%
    14:00 +30°C° 0,1 mm 2 m/s 758 mmHg 43%
    15:00 +30°C° 0,1 mm 2 m/s 758 mmHg 44%
    16:00 +30°C° 0,1 mm 2 m/s 757 mmHg 44%
    17:00 +27°C° 1,2 mm 2 m/s 758 mmHg 55%
    18:00 +25°C° 1,2 mm 2 m/s 758 mmHg 65%
    19:00 +23°C° 1,2 mm 1 m/s 758 mmHg 76%
    20:00 +22°C° 0,7 mm 1 m/s 758 mmHg 79%
    21:00 +21°C° 0,7 mm 1 m/s 759 mmHg 82%
    22:00 +20°C° 0,7 mm 1 m/s 759 mmHg 86%
    23:00 +20°C° 0 mm 1 m/s 758 mmHg 86%

    Mâine, 25 Noiembrie, Sâmbătă

    Timp Temperatura Precipitaţii Vânt Presiune Umiditate
    00:00 +20°C° 0 mm 1 m/s 758 mmHg 86%
    01:00 +19°C° 0 mm 1 m/s 758 mmHg 87%
    02:00 +19°C° 0 mm 1 m/s 758 mmHg 86%
    03:00 +19°C° 0 mm 1 m/s 758 mmHg 84%
    04:00 +19°C° 0 mm 1 m/s 758 mmHg 83%
    05:00 +21°C° 0 mm 1 m/s 758 mmHg 78%
    06:00 +22°C° 0 mm 1 m/s 758 mmHg 72%
    07:00 +23°C° 0 mm 1 m/s 758 mmHg 67%
    08:00 +26°C° 0 mm 2 m/s 758 mmHg 58%
    09:00 +28°C° 0 mm 2 m/s 758 mmHg 49%
    10:00 +31°C° 0 mm 2 m/s 758 mmHg 40%
    11:00 +32°C° 0 mm 2 m/s 758 mmHg 37%
    12:00 +34°C° 0 mm 3 m/s 757 mmHg 35%
    13:00 +35°C° 0 mm 3 m/s 757 mmHg 32%
    14:00 +33°C° 0 mm 3 m/s 757 mmHg 36%
    15:00 +31°C° 0 mm 3 m/s 756 mmHg 40%
    16:00 +30°C° 0 mm 3 m/s 756 mmHg 45%
    17:00 +28°C° 0 mm 2 m/s 756 mmHg 49%
    18:00 +27°C° 0 mm 2 m/s 756 mmHg 53%
    19:00 +25°C° 0 mm 2 m/s 757 mmHg 57%
    20:00 +24°C° 0,4 mm 2 m/s 757 mmHg 65%
    21:00 +23°C° 0,4 mm 2 m/s 757 mmHg 73%
    22:00 +21°C° 0,4 mm 3 m/s 757 mmHg 81%
    23:00 +20°C° 0,5 mm 2 m/s 757 mmHg 84%

    Poimâine, 26 Noiembrie, Duminică

    Timp Temperatura Precipitaţii Vânt Presiune Umiditate
    00:00 +20°C° 0,5 mm 2 m/s 757 mmHg 87%
    01:00 +20°C° 0,5 mm 2 m/s 756 mmHg 89%
    02:00 +20°C° 0,2 mm 2 m/s 756 mmHg 89%
    03:00 +20°C° 0,2 mm 2 m/s 756 mmHg 89%
    04:00 +19°C° 0,2 mm 2 m/s 756 mmHg 89%
    05:00 +20°C° 0,4 mm 2 m/s 756 mmHg 86%
    06:00 +21°C° 0,4 mm 2 m/s 756 mmHg 83%
    07:00 +21°C° 0,4 mm 2 m/s 757 mmHg 80%
    08:00 +25°C° 0,2 mm 3 m/s 757 mmHg 70%
    09:00 +27°C° 0,2 mm 3 m/s 757 mmHg 61%
    10:00 +29°C° 0,2 mm 3 m/s 757 mmHg 51%
    11:00 +30°C° 0,4 mm 3 m/s 757 mmHg 50%
    12:00 +31°C° 0,4 mm 3 m/s 757 mmHg 49%
    13:00 +31°C° 0,4 mm 3 m/s 756 mmHg 48%
    14:00 +30°C° 0,7 mm 4 m/s 756 mmHg 54%
    15:00 +28°C° 0,7 mm 4 m/s 756 mmHg 60%
    16:00 +27°C° 0,7 mm 4 m/s 756 mmHg 65%
    17:00 +25°C° 2,8 mm 4 m/s 756 mmHg 75%
    18:00 +21°C° 2,8 mm 4 m/s 757 mmHg 85%
    19:00 +19°C° 2,8 mm 4 m/s 757 mmHg 94%
    20:00 +19°C° 0,4 mm 4 m/s 758 mmHg 95%
    21:00 +18°C° 0,4 mm 3 m/s 759 mmHg 95%
    22:00 +18°C° 0,4 mm 3 m/s 759 mmHg 96%
    23:00 +18°C° 0 mm 3 m/s 759 mmHg 96%

    27 Noiembrie, Luni

    Timp Temperatura Precipitaţii Vânt Presiune Umiditate
    00:00 +17°C° 0 mm 3 m/s 759 mmHg 96%
    01:00 +17°C° 0 mm 3 m/s 759 mmHg 96%
    02:00 +17°C° 0 mm 3 m/s 759 mmHg 96%
    03:00 +17°C° 0 mm 2 m/s 759 mmHg 95%
    04:00 +17°C° 0 mm 2 m/s 759 mmHg 95%
    05:00 +17°C° 0 mm 2 m/s 759 mmHg 95%
    06:00 +17°C° 0 mm 2 m/s 759 mmHg 94%
    07:00 +17°C° 0 mm 2 m/s 760 mmHg 93%
    08:00 +18°C° 0,1 mm 2 m/s 760 mmHg 89%
    09:00 +19°C° 0,1 mm 3 m/s 760 mmHg 86%
    10:00 +19°C° 0,1 mm 3 m/s 760 mmHg 82%
    11:00 +21°C° 0 mm 3 m/s 760 mmHg 74%
    12:00 +22°C° 0 mm 3 m/s 760 mmHg 66%
    13:00 +25°C° 0 mm 4 m/s 759 mmHg 57%
    14:00 +25°C° 0 mm 4 m/s 759 mmHg 58%
    15:00 +25°C° 0 mm 4 m/s 759 mmHg 59%
    16:00 +23°C° 0 mm 4 m/s 759 mmHg 60%
    17:00 +22°C° 0 mm 4 m/s 759 mmHg 67%
    18:00 +20°C° 0 mm 4 m/s 760 mmHg 74%
    19:00 +19°C° 0 mm 3 m/s 760 mmHg 80%
    20:00 +18°C° 0 mm 3 m/s 761 mmHg 84%
    21:00 +18°C° 0 mm 2 m/s 761 mmHg 87%
    22:00 +17°C° 0 mm 2 m/s 761 mmHg 90%
    23:00 +17°C° 0 mm 2 m/s 761 mmHg 91%

    28 Noiembrie, Marţi

    Timp Temperatura Precipitaţii Vânt Presiune Umiditate
    00:00 +17°C° 0 mm 2 m/s 761 mmHg 92%
    01:00 +18°C° 0 mm 1 m/s 761 mmHg 93%
    02:00 +16°C° 0 mm 1 m/s 761 mmHg 94%
    03:00 +16°C° 0 mm 1 m/s 761 mmHg 95%
    04:00 +16°C° 0 mm 1 m/s 760 mmHg 96%
    05:00 +18°C° 0 mm 1 m/s 761 mmHg 93%
    06:00 +19°C° 0 mm 1 m/s 761 mmHg 90%
    07:00 +19°C° 0 mm 1 m/s 761 mmHg 87%
    08:00 +21°C° 0 mm 1 m/s 761 mmHg 79%
    09:00 +23°C° 0 mm 2 m/s 761 mmHg 70%
    10:00 +25°C° 0 mm 2 m/s 761 mmHg 62%
    11:00 +27°C° 0 mm 2 m/s 761 mmHg 57%
    12:00 +28°C° 0 mm 2 m/s 760 mmHg 52%
    13:00 +29°C° 0 mm 3 m/s 760 mmHg 47%
    14:00 +29°C° 0 mm 3 m/s 760 mmHg 48%
    15:00 +29°C° 0 mm 3 m/s 760 mmHg 48%
    16:00 +29°C° 0 mm 4 m/s 759 mmHg 49%
    17:00 +27°C° 0 mm 3 m/s 760 mmHg 58%
    18:00 +25°C° 0 mm 3 m/s 760 mmHg 66%
    19:00 +22°C° 0 mm 3 m/s 760 mmHg 75%
    20:00 +21°C° 0 mm 2 m/s 760 mmHg 81%
    21:00 +20°C° 0 mm 2 m/s 761 mmHg 86%
    22:00 +19°C° 0 mm 1 m/s 761 mmHg 92%
    23:00 +19°C° 0 mm 1 m/s 761 mmHg 93%

    29 Noiembrie, Miercuri

    Timp Temperatura Precipitaţii Vânt Presiune Umiditate
    00:00 +19°C° 0 mm 1 m/s 760 mmHg 95%
    01:00 +18°C° 0 mm 1 m/s 760 mmHg 96%
    02:00 +18°C° 0 mm 1 m/s 760 mmHg 95%
    03:00 +18°C° 0 mm 1 m/s 760 mmHg 94%
    04:00 +18°C° 0 mm 1 m/s 760 mmHg 94%
    05:00 +18°C° 0 mm 0 m/s 760 mmHg 86%
    06:00 +20°C° 0 mm 0 m/s 760 mmHg 79%
    07:00 +21°C° 0 mm 0 m/s 760 mmHg 71%
    08:00 +26°C° 0 mm 1 m/s 760 mmHg 60%
    09:00 +29°C° 0 mm 1 m/s 760 mmHg 49%
    10:00 +32°C° 0 mm 1 m/s 760 mmHg 38%
    11:00 +33°C° 0 mm 1 m/s 759 mmHg 33%
    12:00 +36°C° 0 mm 2 m/s 759 mmHg 28%
    13:00 +37°C° 0 mm 2 m/s 758 mmHg 24%
    14:00 +37°C° 0 mm 2 m/s 758 mmHg 25%
    15:00 +37°C° 0 mm 3 m/s 758 mmHg 26%
    16:00 +36°C° 0 mm 3 m/s 757 mmHg 27%
    17:00 +34°C° 0 mm 3 m/s 757 mmHg 35%
    18:00 +30°C° 0 mm 3 m/s 758 mmHg 43%
    19:00 +28°C° 0 mm 3 m/s 758 mmHg 51%
    20:00 +26°C° 0 mm 2 m/s 758 mmHg 54%
    21:00 +25°C° 0 mm 2 m/s 758 mmHg 58%
    22:00 +23°C° 0 mm 1 m/s 758 mmHg 61%
    23:00 +23°C° 0 mm 1 m/s 758 mmHg 60%
    Arată mai mult